Location: Franzen
(48.6167°N, 15.3833°E)
Time: 15:31:24
(UTC+00:00)

Transit 2A Rocket - Pass Details

Date: 03 August 2021
Orbit: 586 x 916 km, 66.7° (Epoch: 23 September)

Event Time Altitude Azimuth Distance (km) Brightness Sun altitude
Rises 19:21:20 0° 327° (NNW) 3,196 9.8 -7.6°
Reaches altitude 10° 19:23:59 10° 339° (NNW) 2,327 8.5 -7.9°
Maximum altitude 19:28:35 28° 38° (NE) 1,503 6.5 -8.5°
Drops below altitude 10° 19:33:29 10° 96° (E) 2,498 7.2 -9.1°
Enters shadow 19:34:15 - 100° (E) 2,744 7.3 -9.2°
